Regional Weather Roundup
Issued by NWS Sterling, VA

Home | Current Version | Previous Version | Text Only | Print | Product List | Glossary On
Versions: 1 2 3 4 5 6 7 8 9 10 11 12 13 14 15 16 17 18 19 20 21 22 23 24 25 26 27 28 29 30 31 32 33 34 35 36 37 38 39 40 41 42 43 44 45 46 47 48 49 50
000
ASUS41 KLWX 031310
RWRLWX

REGIONAL WEATHER ROUNDUP
NATIONAL WEATHER SERVICE BALTIMORE MD/WASHINGTON DC
800 AM EST SAT DEC 03 2016

Note: "FAIR" indicates few or no clouds below 12,000 feet
with no significant weather and/or obstructions to visibility.
 TC=TEMPERATURE CELSIUS

 * =Non NWS site. Station does not report precipitation (e.g. rain,
    snow, etc.), thunder, or fog.

DCZ001-MDZ009-015-VAZ040>042-051-053>054-031400-
WASHINGTON METRO

CITY           SKY/WX    TMP DP  RH WIND       PRES   REMARKS
WASHINGTON NAT PTCLDY    43  29  57 W13       30.21R
DULLES         PTCLDY    39  27  62 W12       30.22R
ANDREWS AFB    CLEAR     42  28  58 W16       30.18R
FT BELVOIR     CLEAR     42  27  56 W12       30.21R
QUANTICO       CLEAR     44  28  53 N8        30.24R
COLLEGE PARK*  PTCLDY    41  28  60 W7        30.19R
LEESBURG*      MOCLDY    41  32  70 W12       30.23R
MANASSAS*      CLEAR     41  28  60 NW8       30.24R
GAITHERSBURG*  CLEAR     37  25  60 W13G18    30.22R

$$

MDZ006>007-011-014-031400-
BALTIMORE METRO

CITY           SKY/WX    TMP DP  RH WIND       PRES   REMARKS
BWI AIRPORT    PTCLDY    41  29  62 W13       30.16R
MD SCIENCE CTR   N/A     43  27  53 MISG      30.16R
MARTIN STATE   PTCLDY    43  32  65 W10       30.16R
ANNAPOLIS      CLEAR     45  29  53 W12G18    30.17R
FORT MEADE*    CLEAR     37  30  75 W9        30.21R

$$

MDZ012-015-019>023-031400-
MARYLAND EASTERN SHORE

CITY           SKY/WX    TMP DP  RH WIND       PRES   REMARKS
OCEAN CITY     CLEAR     39  31  72 W10       30.15R
SALISBURY      CLEAR     42  31  64 W12       30.16R
BAY BRIDGE AP* CLEAR     43  30  61 W17G23    30.16S
CAMBRIDGE*     CLEAR     41  30  65 W9        30.17R
EASTON*        CLEAR     45  28  53 NW14G20   30.19R

$$

MDZ017>025-031400-
SOUTHERN MARYLAND

CITY           SKY/WX    TMP DP  RH WIND       PRES   REMARKS
PATUXENT RIVER PTCLDY    43  28  55 W13       30.19R
ST INIGOES     CLEAR     44  30  57 NW12G18   30.18S
LEONARDTOWN*   CLEAR     41  30  65 W9        30.21R

$$

MDZ003>005-031400-
NORTH CENTRAL MARYLAND

CITY           SKY/WX    TMP DP  RH WIND       PRES   REMARKS
FREDERICK*     MOCLDY    41  30  65 W12       30.23R
HAGERSTOWN APT CLOUDY    41  28  60 W15       30.18R
WESTMINSTER*   PTCLDY    37  28  70 W12       30.14R

$$

MDZ501>502-031400-
WESTERN MARYLAND

CITY           SKY/WX    TMP DP  RH WIND       PRES   REMARKS
OAKLAND*       CLOUDY    27  25  93 NW8       30.19R WCI  18
CUMBERLAND*    NOT AVBL

$$

VAZ025>031-031400-
SHENANDOAH VALLEY

CITY           SKY/WX    TMP DP  RH WIND       PRES   REMARKS
WINCHESTER*    CLOUDY    37  27  65 W8        30.24R
FRONT ROYAL*   FAIR      39  28  65 W12G18    30.23R
LURAY*         FAIR      37  32  81 NW3       30.23R
NEW MARKET*    CLOUDY    38  29  70 NW3       30.23R
STAUNTON*      MOCLDY    32  27  81 W3        30.26R
WAYNESBORO*    CLOUDY    34  24  66 W6        30.24R

$$

WVZ021-048>050-054>055-031400-
EASTERN WEST VIRGINIA PANHANDLE

CITY           SKY/WX    TMP DP  RH WIND       PRES   REMARKS
MARTINSBURG    CLOUDY    40  27  59 W15       30.21R
PETERSBURG*    CLOUDY    40  30  66 W7        30.27R

$$

VAZ036>039-050-031400-
CENTRAL FOOTHILLS

CITY           SKY/WX    TMP DP  RH WIND       PRES   REMARKS
CHARLOTTESVILL PTCLDY    41  26  55 NW7       30.23R
CULPEPER*      PTCLDY    42  30  63 CALM      30.24R
ORANGE*          N/A     32  30  93 S9        30.24R WCI  24
GORDONSVILLE*  FAIR      32  28  84 SW5       30.23R
WARRENTON*     FAIR      41  26  54 CALM      30.22R

$$

VAZ055>057-031400-
NORTH AND CENTRAL PIEDMONT

CITY           SKY/WX    TMP DP  RH WIND       PRES   REMARKS
FREDERICKSBRG* CLEAR     39  30  69 W3        30.22S
STAFFORD*      PTCLDY    36  29  78 CALM      30.27S

$$

NCZ024-NYZ072-PAZ021-071-VAZ022-071-031400-
OTHER REGIONAL OBSERVATIONS

CITY           SKY/WX    TMP DP  RH WIND       PRES   REMARKS
NEW YORK CITY  MOCLDY    42  25  50 VRB5G18   30.03R
PHILADELPHIA   MOCLDY    44  30  57 NW17G24   30.10R
PITTSBURGH     CLOUDY    37  29  72 W12       30.27R
ROANOKE        PTCLDY    37  24  59 NW12G21   30.28R
RICHMOND       PTCLDY    37  27  67 NW8       30.22S
RALEIGH        PTCLDY    36  29  75 CALM      30.26R

$$

ANZ530>537-031400-
MARINE OBSERVATIONS

STATION/POSITION TIME  TEMP    WIND        PRES
                       AIR SEA DIR/SP/G
                 (UTC) (F)     (DEG/KT/KT) (MB)
THOMAS PT LIGHT  1300   44 49  290/ 20/ 24   N/A
BALT KEY BRIDGE  1242   43     260/ 16/ 19 1021.0R
COVE POINT       1242   43     310/ 16/ 21 1022.2R
LEWISETTA        1242   39 50  290/ 10/ 12 1022.3R
SOLOMONS ISLAND  1242   44 52  280/  8/ 10   N/A
PINEY POINT      1242          310/ 16/ 17   N/A

$$




USA.gov is the U.S. government's official web portal to all federal, state and local government web resources and services.